• In Denmark
  • List of Countries
  • For 7 days
  • Water Temperature
  • Satellite Maps
  • Weather Map
  • Weather Widgets
  • user-avatar
    Login

    Hourly Weather Sevan

    Today, 25 June, Monday

    Time Temperature Precipitation Wind Pressure Humidity
    00:00 +17°C° 0.2 mm 3 mps 642 mmHg 78%
    01:00 +17°C° 0.2 mm 2 mps 642 mmHg 79%
    02:00 +17°C° 0.2 mm 2 mps 642 mmHg 80%
    03:00 +17°C° 0 mm 2 mps 641 mmHg 80%
    04:00 +17°C° 0.1 mm 2 mps 642 mmHg 79%
    05:00 +18°C° 0.1 mm 2 mps 642 mmHg 78%
    06:00 +18°C° 0.1 mm 2 mps 642 mmHg 76%
    07:00 +20°C° 0.1 mm 2 mps 643 mmHg 70%
    08:00 +23°C° 0.1 mm 2 mps 643 mmHg 63%
    09:00 +25°C° 0 mm 2 mps 644 mmHg 57%
    10:00 +26°C° 0.2 mm 2 mps 644 mmHg 54%
    11:00 +27°C° 0.2 mm 2 mps 644 mmHg 51%
    12:00 +28°C° 0.2 mm 2 mps 644 mmHg 48%
    13:00 +28°C° 0.2 mm 3 mps 644 mmHg 48%
    14:00 +28°C° 0.2 mm 3 mps 643 mmHg 48%
    15:00 +29°C° 0.2 mm 3 mps 643 mmHg 48%
    16:00 +28°C° 0.5 mm 3 mps 643 mmHg 52%
    17:00 +27°C° 0.5 mm 3 mps 643 mmHg 56%
    18:00 +26°C° 0.5 mm 3 mps 642 mmHg 59%
    19:00 +24°C° 0.2 mm 3 mps 642 mmHg 63%
    20:00 +22°C° 0.2 mm 3 mps 642 mmHg 67%
    21:00 +20°C° 0.2 mm 3 mps 642 mmHg 71%
    22:00 +20°C° 0.3 mm 3 mps 642 mmHg 72%
    23:00 +19°C° 0.3 mm 3 mps 642 mmHg 73%

    Tomorrow, 26 June, Tuesday

    Time Temperature Precipitation Wind Pressure Humidity
    00:00 +19°C° 0.3 mm 2 mps 642 mmHg 73%
    01:00 +18°C° 0.1 mm 2 mps 642 mmHg 75%
    02:00 +18°C° 0.1 mm 2 mps 642 mmHg 76%
    03:00 +17°C° 0.1 mm 2 mps 642 mmHg 77%
    04:00 +18°C° 0 mm 2 mps 642 mmHg 75%
    05:00 +18°C° 0 mm 2 mps 642 mmHg 74%
    06:00 +19°C° 0 mm 2 mps 642 mmHg 73%
    07:00 +20°C° 0 mm 2 mps 642 mmHg 66%
    08:00 +23°C° 0 mm 2 mps 642 mmHg 59%
    09:00 +25°C° 0 mm 2 mps 643 mmHg 52%
    10:00 +26°C° 0 mm 2 mps 643 mmHg 49%
    11:00 +27°C° 0 mm 2 mps 643 mmHg 46%
    12:00 +29°C° 0 mm 2 mps 643 mmHg 43%
    13:00 +29°C° 0 mm 2 mps 642 mmHg 43%
    14:00 +29°C° 0 mm 2 mps 642 mmHg 43%
    15:00 +30°C° 0 mm 3 mps 642 mmHg 42%
    16:00 +29°C° 0 mm 3 mps 642 mmHg 46%
    17:00 +28°C° 0 mm 3 mps 641 mmHg 50%
    18:00 +27°C° 0 mm 3 mps 641 mmHg 54%
    19:00 +25°C° 0.1 mm 3 mps 641 mmHg 59%
    20:00 +22°C° 0.1 mm 3 mps 641 mmHg 64%
    21:00 +20°C° 0.1 mm 3 mps 641 mmHg 70%
    22:00 +20°C° 0 mm 3 mps 641 mmHg 69%
    23:00 +19°C° 0 mm 3 mps 641 mmHg 68%

    Day after tomorrow, 27 June, Wednesday

    Time Temperature Precipitation Wind Pressure Humidity
    00:00 +19°C° 0 mm 2 mps 641 mmHg 67%
    01:00 +18°C° 0 mm 2 mps 640 mmHg 67%
    02:00 +18°C° 0 mm 2 mps 640 mmHg 66%
    03:00 +17°C° 0 mm 2 mps 640 mmHg 66%
    04:00 +18°C° 0 mm 2 mps 640 mmHg 65%
    05:00 +19°C° 0 mm 2 mps 641 mmHg 64%
    06:00 +19°C° 0 mm 2 mps 641 mmHg 64%
    07:00 +22°C° 0 mm 1 mps 641 mmHg 58%
    08:00 +24°C° 0 mm 1 mps 642 mmHg 52%
    09:00 +26°C° 0 mm 1 mps 642 mmHg 46%
    10:00 +27°C° 0 mm 1 mps 642 mmHg 44%
    11:00 +28°C° 0 mm 2 mps 642 mmHg 42%
    12:00 +30°C° 0 mm 2 mps 642 mmHg 40%
    13:00 +30°C° 0 mm 2 mps 642 mmHg 40%
    14:00 +30°C° 0 mm 2 mps 642 mmHg 40%
    15:00 +30°C° 0 mm 2 mps 642 mmHg 40%
    16:00 +30°C° 0 mm 2 mps 642 mmHg 44%
    17:00 +29°C° 0 mm 2 mps 641 mmHg 48%
    18:00 +28°C° 0 mm 3 mps 641 mmHg 52%
    19:00 +26°C° 0 mm 3 mps 641 mmHg 57%
    20:00 +24°C° 0 mm 3 mps 641 mmHg 63%
    21:00 +21°C° 0 mm 3 mps 641 mmHg 68%
    22:00 +20°C° 0 mm 3 mps 641 mmHg 67%
    23:00 +20°C° 0 mm 3 mps 641 mmHg 66%

    28 June, Thursday

    Time Temperature Precipitation Wind Pressure Humidity
    00:00 +19°C° 0 mm 2 mps 641 mmHg 64%
    01:00 +19°C° 0 mm 2 mps 641 mmHg 64%
    02:00 +18°C° 0 mm 2 mps 641 mmHg 64%
    03:00 +18°C° 0 mm 2 mps 641 mmHg 64%
    04:00 +19°C° 0 mm 2 mps 641 mmHg 64%
    05:00 +19°C° 0 mm 2 mps 641 mmHg 64%
    06:00 +20°C° 0 mm 2 mps 642 mmHg 63%
    07:00 +23°C° 0 mm 2 mps 642 mmHg 57%
    08:00 +25°C° 0 mm 1 mps 642 mmHg 52%
    09:00 +27°C° 0 mm 1 mps 643 mmHg 46%
    10:00 +28°C° 0 mm 2 mps 643 mmHg 44%
    11:00 +29°C° 0 mm 2 mps 643 mmHg 42%
    12:00 +30°C° 0 mm 2 mps 643 mmHg 40%
    13:00 +31°C° 0 mm 2 mps 642 mmHg 40%
    14:00 +31°C° 0 mm 2 mps 642 mmHg 39%
    15:00 +31°C° 0 mm 3 mps 642 mmHg 39%
    16:00 +31°C° 0 mm 3 mps 642 mmHg 43%
    17:00 +30°C° 0 mm 3 mps 642 mmHg 47%
    18:00 +29°C° 0 mm 3 mps 641 mmHg 50%
    19:00 +27°C° 0 mm 3 mps 641 mmHg 55%
    20:00 +24°C° 0 mm 3 mps 641 mmHg 61%
    21:00 +21°C° 0 mm 3 mps 641 mmHg 66%
    22:00 +21°C° 0 mm 3 mps 641 mmHg 64%
    23:00 +20°C° 0 mm 3 mps 641 mmHg 62%

    29 June, Friday

    Time Temperature Precipitation Wind Pressure Humidity
    00:00 +20°C° 0 mm 2 mps 641 mmHg 61%
    01:00 +19°C° 0 mm 2 mps 641 mmHg 60%
    02:00 +19°C° 0 mm 2 mps 641 mmHg 60%
    03:00 +19°C° 0 mm 2 mps 640 mmHg 59%
    04:00 +19°C° 0 mm 2 mps 641 mmHg 59%
    05:00 +20°C° 0 mm 2 mps 641 mmHg 58%
    06:00 +21°C° 0 mm 2 mps 641 mmHg 58%
    07:00 +24°C° 0 mm 1 mps 641 mmHg 52%
    08:00 +26°C° 0 mm 1 mps 642 mmHg 46%
    09:00 +28°C° 0 mm 1 mps 642 mmHg 40%
    10:00 +29°C° 0 mm 2 mps 642 mmHg 38%
    11:00 +31°C° 0 mm 2 mps 642 mmHg 35%
    12:00 +32°C° 0 mm 2 mps 642 mmHg 33%
    13:00 +32°C° 0 mm 2 mps 642 mmHg 33%
    14:00 +32°C° 0 mm 2 mps 641 mmHg 33%
    15:00 +34°C° 0 mm 2 mps 641 mmHg 33%
    16:00 +32°C° 0 mm 2 mps 641 mmHg 38%
    17:00 +31°C° 0 mm 2 mps 640 mmHg 43%
    18:00 +30°C° 0 mm 2 mps 640 mmHg 47%
    19:00 +28°C° 0 mm 2 mps 640 mmHg 53%
    20:00 +25°C° 0 mm 3 mps 640 mmHg 60%
    21:00 +22°C° 0 mm 3 mps 640 mmHg 66%
    22:00 +21°C° 0 mm 3 mps 640 mmHg 64%
    23:00 +21°C° 0 mm 3 mps 640 mmHg 62%

    30 June, Saturday

    Time Temperature Precipitation Wind Pressure Humidity
    00:00 +20°C° 0 mm 3 mps 639 mmHg 61%
    01:00 +20°C° 0 mm 2 mps 639 mmHg 60%
    02:00 +20°C° 0 mm 2 mps 639 mmHg 60%
    03:00 +19°C° 0 mm 2 mps 639 mmHg 59%
    04:00 +20°C° 0 mm 2 mps 640 mmHg 59%
    05:00 +21°C° 0 mm 2 mps 640 mmHg 58%
    06:00 +21°C° 0 mm 2 mps 640 mmHg 58%
    07:00 +24°C° 0 mm 2 mps 641 mmHg 52%
    08:00 +27°C° 0 mm 2 mps 641 mmHg 45%
    09:00 +29°C° 0 mm 2 mps 642 mmHg 39%
    10:00 +30°C° 0 mm 2 mps 642 mmHg 36%
    11:00 +31°C° 0 mm 2 mps 642 mmHg 34%
    12:00 +34°C° 0 mm 2 mps 642 mmHg 31%
    13:00 +34°C° 0 mm 2 mps 641 mmHg 32%
    14:00 +34°C° 0 mm 2 mps 641 mmHg 32%
    15:00 +34°C° 0 mm 3 mps 641 mmHg 32%
    16:00 +33°C° 0 mm 3 mps 641 mmHg 37%
    17:00 +33°C° 0 mm 3 mps 640 mmHg 42%
    18:00 +31°C° 0 mm 3 mps 640 mmHg 47%
    19:00 +28°C° 0 mm 3 mps 640 mmHg 53%
    20:00 +26°C° 0 mm 3 mps 640 mmHg 59%
    21:00 +22°C° 0 mm 3 mps 640 mmHg 65%
    22:00 +22°C° 0 mm 3 mps 639 mmHg 63%
    23:00 +21°C° 0 mm 3 mps 639 mmHg 61%
    Show more